Location: Champs
(48.8539°N, 2.6040°E)
Time: 08:41:26
(UTC+00:00)

USA 308 - Pass Details

Date: 29 May 2022
Orbit: 549 x 558 km, 54.0° (Epoch: 14 June)

Event Time Altitude Azimuth Distance (km) Brightness Sun altitude
Exits shadow 02:04:06 - 272° (W) 2,492 5.9 -13.2°
Reaches altitude 10° 02:05:48 10° 278° (W) 1,844 5.3 -13.0°
Maximum altitude 02:09:49 43° 351° (N) 791 4.0 -12.7°
Drops below altitude 10° 02:13:51 10° 64° (ENE) 1,852 6.5 -12.3°
Sets 02:16:11 0° 71° (ENE) 2,750 7.3 -12.1°
